Time,TemperatureF,DewpointF,PressureIn,WindDirection,WindDirectionDegrees,WindSpeedMPH,WindSpeedGustMPH,Humidity,HourlyPrecipIn,Conditions,Clouds,dailyrainin,SoftwareType,DateUTC
2013-02-16 00:05:00,30.2,30.2,29.97,North,0,0.0,0.0,100,0.00,,,0.00,meteo_script,2013-02-16 05:05:00,
2013-02-16 00:10:00,30.6,30.6,29.97,North,0,0.0,0.0,100,0.00,,,0.00,meteo_script,2013-02-16 05:10:00,
2013-02-16 00:15:00,31.0,31.0,29.97,North,0,0.0,0.0,100,0.00,,,0.00,meteo_script,2013-02-16 05:15:00,
2013-02-16 00:20:00,31.3,31.3,29.97,North,0,0.0,0.0,100,0.00,,,0.00,meteo_script,2013-02-16 05:20:00,
2013-02-16 00:25:00,31.3,31.3,29.98,North,0,0.0,0.0,100,0.00,,,0.00,meteo_script,2013-02-16 05:25:00,
2013-02-16 00:30:00,31.3,31.3,29.98,North,0,0.0,0.0,100,0.00,,,0.00,meteo_script,2013-02-16 05:30:00,
2013-02-16 00:40:00,31.3,31.3,29.98,North,0,0.0,0.0,100,0.00,,,0.00,meteo_script,2013-02-16 05:40:00,
2013-02-16 00:45:00,31.3,31.3,29.97,North,0,0.0,0.0,100,0.00,,,0.00,meteo_script,2013-02-16 05:45:00,
2013-02-16 00:50:00,31.6,31.6,29.97,South,176,0.0,1.0,100,0.00,,,0.00,meteo_script,2013-02-16 05:50:00,
2013-02-16 00:55:00,32.0,32.0,29.97,North,0,0.0,0.0,100,0.00,,,0.00,meteo_script,2013-02-16 05:55:00,
2013-02-16 01:00:00,32.0,32.0,29.97,North,0,0.0,1.0,100,0.00,,,0.00,meteo_script,2013-02-16 06:00:00,
2013-02-16 01:05:00,32.0,32.0,29.97,North,0,0.0,0.0,100,0.00,,,0.00,meteo_script,2013-02-16 06:05:00,
2013-02-16 01:10:00,31.9,31.9,29.97,North,0,0.0,0.0,100,0.00,,,0.00,meteo_script,2013-02-16 06:10:00,
2013-02-16 01:15:00,31.4,31.4,29.97,North,0,0.0,0.0,100,0.00,,,0.00,meteo_script,2013-02-16 06:15:00,
2013-02-16 01:20:00,31.4,31.4,29.97,North,0,0.0,0.0,100,0.00,,,0.00,meteo_script,2013-02-16 06:20:00,
2013-02-16 01:30:00,31.8,31.8,29.97,North,0,0.0,0.0,100,0.00,,,0.00,meteo_script,2013-02-16 06:30:00,
2013-02-16 01:35:00,31.7,31.7,29.97,North,0,0.0,0.0,100,0.00,,,0.00,meteo_script,2013-02-16 06:35:00,
2013-02-16 01:40:00,31.7,31.7,29.97,North,0,0.0,0.0,100,0.00,,,0.00,meteo_script,2013-02-16 06:40:00,
2013-02-16 01:45:00,31.7,31.7,29.97,North,0,0.0,0.0,100,0.00,,,0.00,meteo_script,2013-02-16 06:45:00,
2013-02-16 01:55:00,32.1,32.1,29.97,North,0,0.0,0.0,100,0.00,,,0.00,meteo_script,2013-02-16 06:55:00,
2013-02-16 02:00:00,32.0,32.0,29.97,North,0,0.0,0.0,100,0.00,,,0.00,meteo_script,2013-02-16 07:00:00,
2013-02-16 02:05:00,31.9,31.9,29.97,North,0,0.0,0.0,100,0.00,,,0.00,meteo_script,2013-02-16 07:05:00,
2013-02-16 02:10:00,32.0,32.0,29.96,North,0,0.0,0.0,100,0.00,,,0.00,meteo_script,2013-02-16 07:10:00,
2013-02-16 02:20:00,32.0,32.0,29.97,North,0,0.0,0.0,100,0.00,,,0.00,meteo_script,2013-02-16 07:20:00,
2013-02-16 02:25:00,31.8,31.8,29.97,North,0,0.0,0.0,100,0.00,,,0.00,meteo_script,2013-02-16 07:25:00,
2013-02-16 02:30:00,31.6,31.6,29.97,North,0,0.0,1.0,100,0.00,,,0.00,meteo_script,2013-02-16 07:30:00,
2013-02-16 02:35:00,31.5,31.5,29.96,North,0,0.0,0.0,100,0.00,,,0.00,meteo_script,2013-02-16 07:35:00,
2013-02-16 02:45:00,31.6,31.6,29.95,NW,326,0.0,1.0,100,0.00,,,0.00,meteo_script,2013-02-16 07:45:00,
2013-02-16 02:50:00,31.5,31.5,29.95,NW,326,0.0,1.0,100,0.00,,,0.00,meteo_script,2013-02-16 07:50:00,
2013-02-16 02:55:00,31.4,31.4,29.95,NW,326,0.0,1.0,100,0.00,,,0.00,meteo_script,2013-02-16 07:55:00,
2013-02-16 03:00:00,31.4,31.4,29.96,NW,326,0.1,1.0,100,0.00,,,0.00,meteo_script,2013-02-16 08:00:00,
2013-02-16 03:10:00,32.3,32.1,29.97,NW,321,0.8,5.0,99,0.00,,,0.00,meteo_script,2013-02-16 08:10:00,
2013-02-16 03:15:00,32.9,32.1,29.96,NW,324,0.8,3.0,97,0.00,,,0.00,meteo_script,2013-02-16 08:15:00,
2013-02-16 03:20:00,33.1,32.3,29.97,NNW,328,0.5,3.0,97,0.00,,,0.00,meteo_script,2013-02-16 08:20:00,
2013-02-16 03:25:00,33.2,32.2,29.97,NNW,328,0.2,1.0,96,0.00,,,0.00,meteo_script,2013-02-16 08:25:00,
2013-02-16 03:35:00,33.2,32.4,29.97,NNW,332,0.4,5.0,97,0.00,,,0.00,meteo_script,2013-02-16 08:35:00,
2013-02-16 03:40:00,33.1,32.6,29.97,NNW,328,0.8,4.0,98,0.00,,,0.00,meteo_script,2013-02-16 08:40:00,
2013-02-16 03:45:00,33.0,32.8,29.97,NW,324,0.6,4.0,99,0.00,,,0.00,meteo_script,2013-02-16 08:45:00,
2013-02-16 03:50:00,32.7,32.7,29.97,NW,324,0.4,2.0,100,0.00,,,0.00,meteo_script,2013-02-16 08:50:00,
2013-02-16 04:00:00,32.4,32.4,29.97,NW,324,0.2,2.0,100,0.00,,,0.00,meteo_script,2013-02-16 09:00:00,
2013-02-16 04:05:00,32.3,32.3,29.97,North,355,0.3,3.0,100,0.00,,,0.00,meteo_script,2013-02-16 09:05:00,
2013-02-16 04:10:00,32.2,32.2,29.97,NNW,344,0.3,3.0,100,0.00,,,0.00,meteo_script,2013-02-16 09:10:00,
2013-02-16 04:15:00,32.0,32.0,29.97,NNW,332,0.4,2.0,100,0.00,,,0.00,meteo_script,2013-02-16 09:15:00,
2013-02-16 04:25:00,31.8,31.8,29.97,North,0,0.3,3.0,100,0.00,,,0.00,meteo_script,2013-02-16 09:25:00,
2013-02-16 04:30:00,31.7,31.7,29.97,NW,320,0.1,2.0,100,0.00,,,0.00,meteo_script,2013-02-16 09:30:00,
2013-02-16 04:35:00,31.7,31.7,29.97,NW,318,0.1,3.0,100,0.00,,,0.00,meteo_script,2013-02-16 09:35:00,
2013-02-16 04:40:00,31.6,31.6,29.97,NW,317,0.2,2.0,100,0.00,,,0.00,meteo_script,2013-02-16 09:40:00,
2013-02-16 04:50:00,31.5,31.5,29.95,NW,326,0.1,3.0,100,0.00,,,0.00,meteo_script,2013-02-16 09:50:00,
2013-02-16 04:55:00,31.4,31.4,29.96,North,0,0.2,3.0,100,0.00,,,0.00,meteo_script,2013-02-16 09:55:00,
2013-02-16 05:00:00,31.4,31.4,29.96,North,0,0.2,1.0,100,0.00,,,0.00,meteo_script,2013-02-16 10:00:00,
2013-02-16 05:05:00,31.4,31.4,29.97,North,0,0.0,0.0,100,0.00,,,0.00,meteo_script,2013-02-16 10:05:00,
2013-02-16 05:15:00,31.4,31.4,29.97,North,0,0.0,0.0,100,0.00,,,0.00,meteo_script,2013-02-16 10:15:00,
2013-02-16 05:20:00,31.3,31.3,29.97,North,0,0.0,0.0,100,0.00,,,0.00,meteo_script,2013-02-16 10:20:00,
2013-02-16 05:25:00,31.3,31.3,29.97,North,0,0.0,1.0,100,0.00,,,0.00,meteo_script,2013-02-16 10:25:00,
2013-02-16 05:30:00,31.3,31.3,29.97,North,0,0.0,0.0,100,0.00,,,0.00,meteo_script,2013-02-16 10:30:00,
2013-02-16 05:40:00,31.2,31.2,29.97,North,0,0.0,0.0,100,0.00,,,0.00,meteo_script,2013-02-16 10:40:00,
2013-02-16 05:45:00,31.2,31.2,29.97,North,0,0.0,1.0,100,0.00,,,0.00,meteo_script,2013-02-16 10:45:00,
2013-02-16 05:50:00,31.2,31.2,29.97,North,0,0.0,0.0,100,0.00,,,0.00,meteo_script,2013-02-16 10:50:00,
2013-02-16 06:00:00,31.1,31.1,29.96,North,0,0.0,0.0,100,0.00,,,0.00,meteo_script,2013-02-16 11:00:00,
2013-02-16 06:05:00,31.1,31.1,29.96,North,0,0.0,0.0,100,0.00,,,0.00,meteo_script,2013-02-16 11:05:00,
2013-02-16 06:10:00,31.1,31.1,29.97,North,0,0.0,0.0,100,0.00,,,0.00,meteo_script,2013-02-16 11:10:00,
2013-02-16 06:15:00,31.0,31.0,29.96,North,0,0.0,0.0,100,0.00,,,0.00,meteo_script,2013-02-16 11:15:00,
2013-02-16 06:25:00,31.0,31.0,29.97,North,0,0.0,0.0,100,0.00,,,0.00,meteo_script,2013-02-16 11:25:00,
2013-02-16 06:30:00,31.0,31.0,29.97,North,0,0.0,0.0,100,0.00,,,0.00,meteo_script,2013-02-16 11:30:00,
2013-02-16 06:35:00,30.9,30.9,29.97,North,0,0.0,0.0,100,0.00,,,0.00,meteo_script,2013-02-16 11:35:00,
2013-02-16 06:45:00,31.0,31.0,29.97,North,0,0.0,0.0,100,0.00,,,0.00,meteo_script,2013-02-16 11:45:00,
2013-02-16 06:50:00,31.0,31.0,29.97,North,0,0.0,0.0,100,0.00,,,0.00,meteo_script,2013-02-16 11:50:00,
2013-02-16 06:55:00,31.0,31.0,29.97,North,0,0.0,0.0,100,0.00,,,0.00,meteo_script,2013-02-16 11:55:00,
2013-02-16 07:00:00,31.0,31.0,29.96,North,0,0.0,0.0,100,0.00,,,0.00,meteo_script,2013-02-16 12:00:00,
2013-02-16 07:10:00,31.0,31.0,29.96,North,0,0.0,0.0,100,0.00,,,0.00,meteo_script,2013-02-16 12:10:00,
2013-02-16 07:15:00,31.0,31.0,29.97,North,0,0.0,0.0,100,0.00,,,0.00,meteo_script,2013-02-16 12:15:00,
2013-02-16 07:20:00,31.0,31.0,29.97,North,0,0.0,0.0,100,0.00,,,0.00,meteo_script,2013-02-16 12:20:00,
2013-02-16 07:25:00,31.0,31.0,29.97,North,0,0.0,0.0,100,0.00,,,0.00,meteo_script,2013-02-16 12:25:00,
2013-02-16 07:35:00,31.1,31.1,29.97,North,0,0.0,0.0,100,0.00,,,0.00,meteo_script,2013-02-16 12:35:00,
2013-02-16 07:40:00,31.2,31.2,29.97,North,0,0.0,0.0,100,0.00,,,0.00,meteo_script,2013-02-16 12:40:00,
2013-02-16 07:45:00,31.2,31.2,29.97,North,0,0.0,0.0,100,0.00,,,0.00,meteo_script,2013-02-16 12:45:00,
2013-02-16 07:50:00,31.2,31.2,29.96,North,0,0.0,0.0,100,0.00,,,0.00,meteo_script,2013-02-16 12:50:00,
2013-02-16 08:00:00,31.7,31.7,29.97,North,0,0.0,0.0,100,0.00,,,0.00,meteo_script,2013-02-16 13:00:00,
2013-02-16 08:05:00,32.0,32.0,29.97,North,0,0.0,0.0,100,0.00,,,0.00,meteo_script,2013-02-16 13:05:00,
2013-02-16 08:10:00,32.2,32.2,29.97,North,0,0.0,0.0,100,0.00,,,0.00,meteo_script,2013-02-16 13:10:00,
2013-02-16 08:20:00,32.7,32.7,29.97,North,0,0.0,0.0,100,0.00,,,0.00,meteo_script,2013-02-16 13:20:00,
2013-02-16 08:25:00,33.0,33.0,29.98,North,0,0.0,0.0,100,0.00,,,0.00,meteo_script,2013-02-16 13:25:00,
2013-02-16 08:30:00,33.1,33.1,29.98,North,0,0.0,0.0,100,0.00,,,0.00,meteo_script,2013-02-16 13:30:00,
2013-02-16 08:40:00,33.3,33.3,29.98,North,0,0.0,0.0,100,0.00,,,0.00,meteo_script,2013-02-16 13:40:00,
2013-02-16 08:45:00,33.7,33.7,29.97,North,0,0.0,0.0,100,0.00,,,0.00,meteo_script,2013-02-16 13:45:00,
2013-02-16 08:50:00,34.0,34.0,29.97,North,0,0.0,0.0,100,0.00,,,0.00,meteo_script,2013-02-16 13:50:00,
2013-02-16 08:55:00,34.3,34.3,29.97,North,0,0.0,0.0,100,0.00,,,0.00,meteo_script,2013-02-16 13:55:00,
2013-02-16 09:05:00,34.7,34.7,29.97,North,0,0.0,0.0,100,0.00,,,0.00,meteo_script,2013-02-16 14:05:00,
2013-02-16 09:10:00,34.9,34.9,29.97,North,0,0.0,0.0,100,0.00,,,0.00,meteo_script,2013-02-16 14:10:00,
2013-02-16 09:15:00,35.0,35.0,29.97,North,0,0.0,0.0,100,0.00,,,0.00,meteo_script,2013-02-16 14:15:00,
2013-02-16 09:25:00,35.5,35.5,29.96,North,0,0.0,0.0,100,0.00,,,0.00,meteo_script,2013-02-16 14:25:00,
2013-02-16 09:30:00,35.8,35.8,29.96,North,0,0.0,0.0,100,0.00,,,0.00,meteo_script,2013-02-16 14:30:00,
2013-02-16 09:35:00,36.0,36.0,29.95,North,0,0.0,0.0,100,0.00,,,0.00,meteo_script,2013-02-16 14:35:00,
2013-02-16 09:45:00,36.8,36.8,29.95,NNW,330,0.1,3.0,99,0.00,,,0.00,meteo_script,2013-02-16 14:45:00,
2013-02-16 09:50:00,36.7,36.4,29.95,WNW,287,0.1,1.0,99,0.00,,,0.00,meteo_script,2013-02-16 14:50:00,
2013-02-16 09:55:00,36.4,36.2,29.95,NW,311,0.2,2.0,99,0.00,,,0.00,meteo_script,2013-02-16 14:55:00,
2013-02-16 10:00:00,36.5,36.2,29.96,North,0,0.1,1.0,99,0.00,,,0.00,meteo_script,2013-02-16 15:00:00,
2013-02-16 10:10:00,37.2,36.7,29.95,North,0,0.3,2.0,98,0.01,,,0.01,meteo_script,2013-02-16 15:10:00,
2013-02-16 10:15:00,37.4,36.7,29.95,North,356,0.2,2.0,96,0.01,,,0.01,meteo_script,2013-02-16 15:15:00,
2013-02-16 10:20:00,37.6,36.4,29.95,North,0,0.2,2.0,95,0.02,,,0.02,meteo_script,2013-02-16 15:20:00,
2013-02-16 10:30:00,38.6,37.2,29.96,North,0,0.1,1.0,94,0.03,,,0.03,meteo_script,2013-02-16 15:30:00,
2013-02-16 10:35:00,38.6,37.0,29.96,North,0,0.1,2.0,94,0.03,,,0.03,meteo_script,2013-02-16 15:35:00,
2013-02-16 10:40:00,38.6,36.7,29.96,North,0,0.2,3.0,93,0.03,,,0.03,meteo_script,2013-02-16 15:40:00,
2013-02-16 10:50:00,38.3,36.2,29.95,North,0,0.3,3.0,92,0.04,,,0.04,meteo_script,2013-02-16 15:50:00,
2013-02-16 10:55:00,38.1,36.2,29.95,North,358,0.2,2.0,92,0.04,,,0.04,meteo_script,2013-02-16 15:55:00,
2013-02-16 11:00:00,37.9,35.8,29.95,NNW,331,0.1,2.0,92,0.04,,,0.04,meteo_script,2013-02-16 16:00:00,
2013-02-16 11:10:00,37.7,35.6,29.95,North,0,0.2,2.0,92,0.03,,,0.04,meteo_script,2013-02-16 16:10:00,
2013-02-16 11:15:00,37.7,35.6,29.95,NNW,341,0.2,4.0,92,0.03,,,0.04,meteo_script,2013-02-16 16:15:00,
2013-02-16 11:20:00,37.9,35.8,29.95,North,0,0.2,2.0,92,0.02,,,0.04,meteo_script,2013-02-16 16:20:00,
2013-02-16 11:25:00,37.7,35.6,29.95,NNE,26,0.2,4.0,92,0.02,,,0.04,meteo_script,2013-02-16 16:25:00,
2013-02-16 11:35:00,37.4,35.1,29.94,WNW,299,0.4,2.0,91,0.01,,,0.04,meteo_script,2013-02-16 16:35:00,
2013-02-16 11:45:00,37.9,35.5,29.94,NW,324,0.3,1.0,91,0.01,,,0.04,meteo_script,2013-02-16 16:45:00,
2013-02-16 11:55:00,38.6,36.0,29.93,NW,324,0.0,2.0,90,0.00,,,0.04,meteo_script,2013-02-16 16:55:00,
2013-02-16 12:00:00,38.7,35.5,29.92,North,0,0.1,2.0,88,0.00,,,0.04,meteo_script,2013-02-16 17:00:00,
2013-02-16 12:05:00,39.1,35.6,29.92,NW,310,0.1,2.0,87,0.00,,,0.04,meteo_script,2013-02-16 17:05:00,
2013-02-16 12:10:00,38.7,35.1,29.93,North,0,0.2,2.0,86,0.00,,,0.04,meteo_script,2013-02-16 17:10:00,
2013-02-16 12:20:00,38.0,34.8,29.93,NW,316,0.0,2.0,88,0.00,,,0.04,meteo_script,2013-02-16 17:20:00,
2013-02-16 12:25:00,38.2,35.3,29.92,North,0,0.2,3.0,89,0.00,,,0.04,meteo_script,2013-02-16 17:25:00,
2013-02-16 12:30:00,38.4,35.2,29.92,NW,310,0.4,3.0,88,0.00,,,0.04,meteo_script,2013-02-16 17:30:00,
2013-02-16 12:35:00,38.7,35.2,29.91,NNW,346,0.3,3.0,87,0.00,,,0.04,meteo_script,2013-02-16 17:35:00,
2013-02-16 12:45:00,38.8,35.3,29.91,North,349,0.1,1.0,87,0.00,,,0.04,meteo_script,2013-02-16 17:45:00,
2013-02-16 12:50:00,38.5,35.0,29.91,North,349,0.1,2.0,87,0.00,,,0.04,meteo_script,2013-02-16 17:50:00,
2013-02-16 13:00:00,38.2,34.7,29.91,North,0,0.0,0.0,87,0.00,,,0.04,meteo_script,2013-02-16 18:00:00,
2013-02-16 13:05:00,38.1,34.9,29.90,North,0,0.0,0.0,88,0.00,,,0.04,meteo_script,2013-02-16 18:05:00,
2013-02-16 13:10:00,38.4,34.9,29.90,North,0,0.1,3.0,87,0.00,,,0.04,meteo_script,2013-02-16 18:10:00,
2013-02-16 13:20:00,38.9,34.8,29.90,North,0,0.1,1.0,85,0.00,,,0.04,meteo_script,2013-02-16 18:20:00,
2013-02-16 13:30:00,39.5,34.8,29.89,NW,310,0.0,2.0,83,0.00,,,0.04,meteo_script,2013-02-16 18:30:00,
2013-02-16 13:35:00,39.7,35.2,29.89,North,0,0.0,1.0,83,0.00,,,0.04,meteo_script,2013-02-16 18:35:00,
2013-02-16 13:45:00,39.9,35.2,29.89,North,0,0.0,1.0,83,0.00,,,0.04,meteo_script,2013-02-16 18:45:00,
2013-02-16 13:50:00,39.7,34.6,29.89,North,0,0.1,2.0,82,0.00,,,0.04,meteo_script,2013-02-16 18:50:00,
2013-02-16 13:55:00,39.2,34.1,29.89,North,0,0.1,1.0,82,0.00,,,0.04,meteo_script,2013-02-16 18:55:00,
2013-02-16 14:00:00,39.1,34.0,29.88,North,0,0.0,0.0,82,0.00,,,0.04,meteo_script,2013-02-16 19:00:00,
2013-02-16 14:10:00,39.2,34.2,29.89,North,0,0.1,1.0,81,0.00,,,0.04,meteo_script,2013-02-16 19:10:00,
2013-02-16 14:15:00,39.2,34.2,29.88,North,0,0.0,1.0,82,0.00,,,0.04,meteo_script,2013-02-16 19:15:00,
2013-02-16 14:20:00,39.2,33.8,29.88,North,0,0.0,0.0,80,0.00,,,0.04,meteo_script,2013-02-16 19:20:00,
2013-02-16 14:25:00,39.3,34.0,29.88,North,0,0.1,2.0,81,0.00,,,0.04,meteo_script,2013-02-16 19:25:00,
2013-02-16 14:30:00,39.2,33.6,29.88,North,0,0.1,1.0,80,0.00,,,0.04,meteo_script,2013-02-16 19:30:00,
2013-02-16 14:40:00,39.1,33.7,29.88,North,0,0.0,1.0,81,0.00,,,0.04,meteo_script,2013-02-16 19:40:00,
2013-02-16 14:45:00,38.9,33.6,29.88,North,0,0.0,0.0,81,0.00,,,0.04,meteo_script,2013-02-16 19:45:00,
2013-02-16 14:55:00,38.9,33.7,29.88,North,0,0.0,0.0,81,0.00,,,0.04,meteo_script,2013-02-16 19:55:00,
2013-02-16 15:00:00,38.9,33.7,29.87,North,0,0.0,1.0,81,0.00,,,0.04,meteo_script,2013-02-16 20:00:00,
2013-02-16 15:05:00,38.9,34.2,29.87,North,0,0.0,1.0,83,0.00,,,0.04,meteo_script,2013-02-16 20:05:00,
2013-02-16 15:10:00,39.0,34.0,29.87,North,0,0.0,1.0,82,0.00,,,0.04,meteo_script,2013-02-16 20:10:00,
2013-02-16 15:20:00,38.9,33.4,29.87,North,0,0.0,1.0,80,0.00,,,0.04,meteo_script,2013-02-16 20:20:00,
2013-02-16 15:25:00,39.0,33.4,29.87,North,0,0.0,0.0,80,0.00,,,0.04,meteo_script,2013-02-16 20:25:00,
2013-02-16 15:35:00,39.0,33.7,29.87,North,0,0.0,2.0,81,0.00,,,0.04,meteo_script,2013-02-16 20:35:00,
2013-02-16 15:40:00,38.9,33.2,29.87,North,0,0.1,1.0,80,0.00,,,0.04,meteo_script,2013-02-16 20:40:00,
2013-02-16 15:45:00,38.7,32.8,29.87,North,0,0.0,1.0,79,0.00,,,0.04,meteo_script,2013-02-16 20:45:00,
2013-02-16 15:50:00,38.6,33.0,29.87,North,0,0.0,0.0,80,0.00,,,0.04,meteo_script,2013-02-16 20:50:00,
2013-02-16 16:00:00,38.3,32.7,29.86,North,0,0.0,0.0,80,0.00,,,0.04,meteo_script,2013-02-16 21:00:00,
2013-02-16 16:05:00,38.3,33.3,29.86,North,0,0.0,0.0,82,0.00,,,0.04,meteo_script,2013-02-16 21:05:00,
2013-02-16 16:10:00,38.1,33.3,29.86,North,0,0.0,1.0,82,0.00,,,0.04,meteo_script,2013-02-16 21:10:00,
2013-02-16 16:15:00,37.9,32.9,29.86,North,0,0.0,0.0,82,0.00,,,0.04,meteo_script,2013-02-16 21:15:00,
2013-02-16 16:25:00,37.5,32.5,29.85,North,0,0.0,0.0,82,0.00,,,0.04,meteo_script,2013-02-16 21:25:00,
2013-02-16 16:30:00,37.3,32.8,29.85,North,0,0.0,0.0,83,0.00,,,0.04,meteo_script,2013-02-16 21:30:00,
2013-02-16 16:35:00,37.2,32.7,29.85,North,0,0.0,0.0,83,0.00,,,0.04,meteo_script,2013-02-16 21:35:00,
2013-02-16 16:45:00,36.8,32.4,29.85,North,0,0.0,0.0,84,0.00,,,0.04,meteo_script,2013-02-16 21:45:00,
2013-02-16 16:50:00,36.5,32.7,29.84,North,0,0.0,0.0,85,0.00,,,0.04,meteo_script,2013-02-16 21:50:00,
2013-02-16 16:55:00,36.3,32.1,29.85,North,3,0.1,4.0,84,0.00,,,0.04,meteo_script,2013-02-16 21:55:00,
2013-02-16 17:00:00,36.2,31.7,29.84,North,0,0.1,0.0,83,0.00,,,0.04,meteo_script,2013-02-16 22:00:00,
2013-02-16 17:10:00,35.6,31.8,29.85,North,0,0.0,1.0,86,0.00,,,0.04,meteo_script,2013-02-16 22:10:00,
2013-02-16 17:15:00,35.4,31.5,29.86,North,0,0.0,1.0,85,0.00,,,0.04,meteo_script,2013-02-16 22:15:00,
2013-02-16 17:20:00,35.2,31.4,29.86,North,0,0.0,2.0,86,0.00,,,0.04,meteo_script,2013-02-16 22:20:00,
2013-02-16 17:30:00,34.8,31.0,29.86,North,0,0.3,1.0,86,0.00,,,0.04,meteo_script,2013-02-16 22:30:00,
2013-02-16 17:35:00,34.7,30.1,29.86,NNW,340,0.2,4.0,83,0.00,,,0.04,meteo_script,2013-02-16 22:35:00,
2013-02-16 17:40:00,34.6,30.5,29.86,North,3,0.2,2.0,84,0.00,,,0.04,meteo_script,2013-02-16 22:40:00,
2013-02-16 17:45:00,34.5,29.8,29.86,NNW,348,0.3,4.0,82,0.00,,,0.04,meteo_script,2013-02-16 22:45:00,
2013-02-16 17:55:00,34.5,29.1,29.86,NW,317,0.7,4.0,80,0.00,,,0.04,meteo_script,2013-02-16 22:55:00,
2013-02-16 18:00:00,34.4,28.6,29.86,NNW,341,0.7,4.0,79,0.00,,,0.04,meteo_script,2013-02-16 23:00:00,
2013-02-16 18:05:00,34.3,28.2,29.86,NNW,330,1.0,6.0,78,0.00,,,0.04,meteo_script,2013-02-16 23:05:00,
2013-02-16 18:10:00,34.3,28.7,29.86,North,356,1.0,5.0,79,0.00,,,0.04,meteo_script,2013-02-16 23:10:00,
2013-02-16 18:20:00,33.9,28.9,29.87,North,0,0.5,6.0,81,0.00,,,0.04,meteo_script,2013-02-16 23:20:00,
2013-02-16 18:30:00,33.7,29.4,29.86,NNW,327,0.3,3.0,84,0.00,,,0.04,meteo_script,2013-02-16 23:30:00,
2013-02-16 18:35:00,33.5,28.0,29.86,NNW,327,0.2,3.0,79,0.00,,,0.04,meteo_script,2013-02-16 23:35:00,
2013-02-16 18:45:00,33.5,27.3,29.86,NNW,328,0.7,4.0,77,0.00,,,0.04,meteo_script,2013-02-16 23:45:00,
2013-02-16 18:50:00,33.5,27.0,29.86,North,0,0.9,5.0,76,0.00,,,0.04,meteo_script,2013-02-16 23:50:00,
2013-02-16 18:55:00,33.4,27.3,29.86,NE,36,0.4,2.0,78,0.00,,,0.04,meteo_script,2013-02-16 23:55:00,
2013-02-16 19:00:00,33.3,28.5,29.86,North,0,0.1,1.0,82,0.00,,,0.04,meteo_script,2013-02-17 00:00:00,
2013-02-16 19:10:00,33.1,27.0,29.86,North,0,0.3,3.0,78,0.00,,,0.04,meteo_script,2013-02-17 00:10:00,
2013-02-16 19:15:00,33.0,26.8,29.86,NNW,337,0.3,3.0,77,0.00,,,0.04,meteo_script,2013-02-17 00:15:00,
2013-02-16 19:20:00,32.9,26.5,29.86,North,356,0.4,4.0,77,0.00,,,0.04,meteo_script,2013-02-17 00:20:00,
2013-02-16 19:25:00,32.7,25.8,29.85,NNW,338,0.6,5.0,75,0.00,,,0.04,meteo_script,2013-02-17 00:25:00,
2013-02-16 19:35:00,32.6,24.9,29.85,NNW,339,1.2,6.0,72,0.00,,,0.04,meteo_script,2013-02-17 00:35:00,
2013-02-16 19:45:00,32.4,25.4,29.84,NNW,341,0.4,6.0,75,0.00,,,0.04,meteo_script,2013-02-17 00:45:00,
2013-02-16 19:50:00,32.4,25.1,29.84,North,0,0.3,3.0,74,0.00,,,0.04,meteo_script,2013-02-17 00:50:00,
2013-02-16 20:00:00,32.2,24.5,29.84,NNW,335,0.5,2.0,73,0.00,,,0.04,meteo_script,2013-02-17 01:00:00,
2013-02-16 20:05:00,32.2,25.0,29.84,NW,326,0.6,5.0,74,0.00,,,0.04,meteo_script,2013-02-17 01:05:00,
2013-02-16 20:10:00,32.1,24.5,29.84,North,353,0.9,7.0,73,0.00,,,0.04,meteo_script,2013-02-17 01:10:00,
2013-02-16 20:20:00,31.9,24.1,29.84,NW,319,0.8,4.0,72,0.00,,,0.04,meteo_script,2013-02-17 01:20:00,
2013-02-16 20:25:00,31.8,23.8,29.83,NNW,338,1.0,8.0,72,0.00,,,0.04,meteo_script,2013-02-17 01:25:00,
2013-02-16 20:30:00,31.7,23.4,29.83,WNW,300,1.2,10.0,71,0.00,,,0.04,meteo_script,2013-02-17 01:30:00,
2013-02-16 20:35:00,31.6,23.9,29.83,NNW,339,0.6,2.0,72,0.00,,,0.04,meteo_script,2013-02-17 01:35:00,
2013-02-16 20:45:00,31.4,23.4,29.83,NW,306,1.4,9.0,71,0.00,,,0.04,meteo_script,2013-02-17 01:45:00,
2013-02-16 20:50:00,31.4,23.7,29.84,WNW,303,0.9,3.0,72,0.00,,,0.04,meteo_script,2013-02-17 01:50:00,
2013-02-16 20:55:00,31.3,23.3,29.83,NNW,346,0.5,5.0,72,0.00,,,0.04,meteo_script,2013-02-17 01:55:00,
2013-02-16 21:00:00,31.3,23.7,29.83,NW,313,0.8,4.0,73,0.00,,,0.04,meteo_script,2013-02-17 02:00:00,
2013-02-16 21:10:00,31.1,23.3,29.83,NNW,341,0.9,5.0,72,0.00,,,0.04,meteo_script,2013-02-17 02:10:00,
2013-02-16 21:15:00,31.0,23.1,29.83,NW,321,0.8,6.0,72,0.00,,,0.04,meteo_script,2013-02-17 02:15:00,
2013-02-16 21:20:00,31.0,23.0,29.83,NNW,336,1.0,5.0,72,0.00,,,0.04,meteo_script,2013-02-17 02:20:00,
2013-02-16 21:25:00,30.9,23.3,29.83,NW,319,0.8,4.0,73,0.00,,,0.04,meteo_script,2013-02-17 02:25:00,
2013-02-16 21:35:00,30.8,22.8,29.82,NNW,344,0.8,5.0,71,0.00,,,0.04,meteo_script,2013-02-17 02:35:00,
2013-02-16 21:40:00,30.6,22.6,29.82,NW,326,1.3,7.0,71,0.00,,,0.04,meteo_script,2013-02-17 02:40:00,
2013-02-16 21:50:00,30.5,22.2,29.82,NNW,336,0.9,7.0,71,0.00,,,0.04,meteo_script,2013-02-17 02:50:00,
2013-02-16 22:00:00,30.3,22.4,29.82,NW,326,0.5,3.0,72,0.00,,,0.04,meteo_script,2013-02-17 03:00:00,
2013-02-16 22:05:00,30.3,21.7,29.81,North,355,0.6,10.0,70,0.00,,,0.04,meteo_script,2013-02-17 03:05:00,
2013-02-16 22:10:00,30.2,22.0,29.81,NNW,342,0.9,4.0,71,0.00,,,0.04,meteo_script,2013-02-17 03:10:00,
2013-02-16 22:15:00,30.2,22.1,29.81,NW,321,0.6,3.0,71,0.00,,,0.04,meteo_script,2013-02-17 03:15:00,
2013-02-16 22:25:00,30.1,21.7,29.80,NNW,327,1.2,4.0,70,0.00,,,0.04,meteo_script,2013-02-17 03:25:00,
2013-02-16 22:30:00,30.0,22.1,29.80,NW,321,0.7,4.0,72,0.00,,,0.04,meteo_script,2013-02-17 03:30:00,
2013-02-16 22:35:00,29.9,21.7,29.80,NNW,329,0.7,5.0,71,0.00,,,0.04,meteo_script,2013-02-17 03:35:00,
2013-02-16 22:40:00,29.9,22.0,29.79,SW,225,0.6,3.0,72,0.00,,,0.04,meteo_script,2013-02-17 03:40:00,
2013-02-16 22:50:00,29.6,22.0,29.78,NW,311,0.5,4.0,73,0.00,,,0.04,meteo_script,2013-02-17 03:50:00,
2013-02-16 22:55:00,29.5,21.9,29.78,NW,312,1.2,7.0,73,0.00,,,0.04,meteo_script,2013-02-17 03:55:00,
2013-02-16 23:00:00,29.3,22.2,29.78,NW,324,1.4,6.0,74,0.00,,,0.04,meteo_script,2013-02-17 04:00:00,
2013-02-16 23:05:00,29.2,22.6,29.77,NNW,329,1.2,7.0,75,0.00,,,0.04,meteo_script,2013-02-17 04:05:00,
2013-02-16 23:15:00,28.9,22.6,29.77,NW,323,1.4,5.0,77,0.00,,,0.04,meteo_script,2013-02-17 04:15:00,
2013-02-16 23:20:00,28.7,22.4,29.77,NNW,336,1.5,9.0,77,0.00,,,0.04,meteo_script,2013-02-17 04:20:00,
2013-02-16 23:25:00,28.5,22.5,29.77,NNW,338,1.3,6.0,78,0.00,,,0.04,meteo_script,2013-02-17 04:25:00,
2013-02-16 23:30:00,28.5,22.5,29.77,NNW,334,0.8,3.0,78,0.00,,,0.04,meteo_script,2013-02-17 04:30:00,
2013-02-16 23:40:00,28.1,22.9,29.76,NNW,346,1.3,6.0,80,0.00,,,0.04,meteo_script,2013-02-17 04:40:00,
2013-02-16 23:45:00,27.9,23.1,29.76,NW,314,1.2,5.0,82,0.00,,,0.04,meteo_script,2013-02-17 04:45:00,
2013-02-16 23:50:00,27.8,23.5,29.77,NNW,338,0.9,6.0,83,0.00,,,0.04,meteo_script,2013-02-17 04:50:00,
2013-02-16 23:55:00,27.7,23.5,29.76,NNW,341,1.0,6.0,83,0.00,,,0.04,meteo_script,2013-02-17 04:55:00,